DECAYED

NOAA 17 DEB, 48733 (Decayed)

Orbit data source: Space-Track

NOAA 17 DEB, 48733 was space debris in SSO originally from a launch on Mon, 24 Jun 2002 UTC launched from the Air Force Western Test Range (AFWTR). Debris objects in space refer to the collection of defunct objects orbiting the Earth. Examples of debris include non-operational satellites, rocket bodies, and fragments generated from explosions, collisions, or faulty payload assembly.

Not visible in the next 10 days
Identifier
48733, 2002-032BS
Orbit
Decayed
Country
Flag of USUS
Related business
Manufacturer
Unknown
Mission
Decayed spacecraft
Bus & Motor
Unknown
Mass
Unknown
Launch date (UTC)
2002-06-24 (24 years ago)
Launch vehicle
Unknown
Launch site
Air Force Western Test Range (AFWTR)
Object type
Payload
Rocket body
Debris
Shape & HBR
Unknown shape, 0.1 m
Radar Cross Section
Medium (>0.1 m² and <1 m²)

Expand to show TLE details & history
Last TLE update: 6 months ago

TLE from 6 months ago
0 NOAA 17 DEB
1 48733U 02032BS  25362.10756384  .00298150  00000-0  83624-2 0  9994
2 48733  98.6975  58.8549 0008396   3.6587 356.4713 15.35314452254110
Epoch: 2025-12-28T02:34Z
TLE epoch observation values (Epoch: 2025-12-28T02:34:53.515Z)
Latitude
0.00002°
Longitude
-76.69237°
Altitude
457.326 km
Speed
7.641 km/s
True Right ascension
03h 55m 25s
True Declination
0° 00' 00"
Sunlit
Object was in full shadow at epoch
Visualization orbit readout
Latitude
Unknown
Longitude
Unknown
Altitude
Unknown
Speed
Unknown
Apparent Right ascension
Unknown
Apparent Declination
Unknown
Sunlit
N/A
Visualization observer readout
Local Sidereal Time
21:35:47
Azimuth
Unknown
Elevation
Unknown
Doppler factor
Unknown
Orbital elements
Apogee altitude
462.731 km
Perigee altitude
451.254 km
Semi-major axis
6,835.129 km
Eccentricity
0.00084
Inclination
98.6975°
RAAN
58.8549°
Arg. of periapsis
3.6587°
True anomaly
356.46537°
Mean anomaly
356.4713°
Eccentric anomaly
356.46834°
Mean motion
3.84081 °/min
Orbital period
93.73 mins
BSTAR
0.0083624
Loading maneuver chart data...
Computing Atmospheric mass density...

Documentation

Showing up to 5 results
|